Change the Weather History Date:

Tuesday, January 22, 2013

  Actual Average Record
Temperature  
Mean Temperature 19 °F 31 °F  
Max Temperature 25 °F 40 °F 66 °F (1967)
Min Temperature 13 °F 22 °F -16 °F (1984)
Degree Days  
Heating Degree Days 46 34  
Month to date heating degree days 599 748  
Since 1 July heating degree days 2485 2774  
Cooling Degree Days 0 0  
Month to date cooling degree days 0 0  
Year to date cooling degree days 0 0  
Moisture  
Dew Point -5 °F    
Average Humidity 37    
Maximum Humidity 46    
Minimum Humidity 28    
Precipitation  
Precipitation 0.00 in 0.09 in 0.68 in (1987)
Month to date precipitation 1.40 1.70  
Year to date precipitation 1.40 1.70  
Sea Level Pressure  
Sea Level Pressure 30.20 in    
Wind  
Wind Speed 14 mph (WNW)    
Max Wind Speed 31 mph    
Max Gust Speed 40 mph    
Visibility 10 miles    
Events      
T = Trace of Precipitation, MM = Missing Value Source: NWS Daily Summary

Daily Weather History Graph

Daily Weather History Graph

Search for Another Location

Airport or City:

Trip Planner

Search our weather history database for the weather conditions in past years. The results will help you decide how hot, cold, wet, or windy it might be!

Date:

Astronomy

Jan. 22, 2013 Rise Set
Actual Time 7:26 AM EST 5:20 PM EST
Civil Twilight 6:57 AM EST 5:49 PM EST
Nautical Twilight 6:25 AM EST 6:22 PM EST
Astronomical Twilight 5:53 AM EST 6:54 PM EST
Moon 1:42 PM EST (1/22) 3:46 AM EST (1/22)
Length of Visible Light 10h 52m
Length of Day
9h 54m
Waxing Gibbous, 82% of the Moon is Illuminated
Jan 22
Waxing Gibbous
Jan 26
Full
Feb 3
Last Quarter
Feb 10
New
Feb 17
First Quarter

Hourly Weather History & Observations

Time (EST) Temp. Windchill Dew Point Humidity Pressure Visibility Wind Dir Wind Speed Gust Speed Precip Events Conditions
12:53 AM 21.9 °F 6.2 °F -2.0 °F 35% 30.01 in 10.0 mi West 21.9 mph 39.1 mph N/A   Clear
1:53 AM 19.9 °F 2.8 °F -2.9 °F 37% 30.03 in 10.0 mi WNW 24.2 mph 38.0 mph N/A   Clear
2:53 AM 19.0 °F 3.6 °F -5.1 °F 34% 30.06 in 10.0 mi WNW 18.4 mph 34.5 mph N/A   Clear
3:53 AM 18.0 °F 0.6 °F -2.9 °F 40% 30.07 in 10.0 mi West 23.0 mph 28.8 mph N/A   Clear
4:53 AM 17.1 °F 0.6 °F -2.9 °F 41% 30.09 in 10.0 mi West 19.6 mph 27.6 mph N/A   Clear
5:53 AM 16.0 °F 3.6 °F -2.9 °F 43% 30.12 in 10.0 mi WNW 10.4 mph 25.3 mph N/A   Scattered Clouds
6:53 AM 15.1 °F -1.6 °F -5.1 °F 41% 30.17 in 10.0 mi West 18.4 mph 28.8 mph N/A   Scattered Clouds
7:53 AM 14.0 °F -4.3 °F -8.0 °F 37% 30.19 in 10.0 mi West 21.9 mph 25.3 mph N/A   Clear
8:53 AM 15.1 °F -0.6 °F -6.0 °F 39% 30.22 in 10.0 mi WNW 16.1 mph 23.0 mph N/A   Partly Cloudy
9:53 AM 16.0 °F 4.4 °F -6.0 °F 38% 30.24 in 10.0 mi West 9.2 mph 18.4 mph N/A   Mostly Cloudy
10:53 AM 18.0 °F 5.4 °F -7.1 °F 33% 30.24 in 10.0 mi NW 11.5 mph 21.9 mph N/A   Mostly Cloudy
11:53 AM 19.0 °F 8.2 °F -7.1 °F 31% 30.22 in 10.0 mi West 9.2 mph 23.0 mph N/A   Overcast
12:53 PM 19.9 °F 6.7 °F -7.1 °F 30% 30.20 in 10.0 mi West 13.8 mph 20.7 mph N/A   Overcast
1:53 PM 21.0 °F 4.3 °F -6.0 °F 30% 30.19 in 10.0 mi West 24.2 mph 28.8 mph N/A   Overcast
2:53 PM 21.0 °F 6.2 °F -7.1 °F 29% 30.20 in 10.0 mi West 18.4 mph 26.5 mph N/A   Mostly Cloudy
3:53 PM 19.9 °F 9.3 °F -6.0 °F 32% 30.21 in 10.0 mi WNW 9.2 mph 20.7 mph N/A   Scattered Clouds
4:53 PM 19.0 °F 6.8 °F -5.1 °F 34% 30.23 in 10.0 mi West 11.5 mph 17.3 mph N/A   Clear
5:53 PM 17.1 °F 7.6 °F -5.1 °F 37% 30.26 in 10.0 mi West 6.9 mph - N/A   Partly Cloudy
6:53 PM 17.1 °F 6.6 °F -4.0 °F 39% 30.28 in 10.0 mi West 8.1 mph - N/A   Partly Cloudy
7:53 PM 17.1 °F 5.0 °F -4.0 °F 39% 30.28 in 10.0 mi West 10.4 mph 20.7 mph N/A   Clear
8:53 PM 16.0 °F 3.6 °F -2.9 °F 43% 30.29 in 10.0 mi WNW 10.4 mph - N/A   Clear
9:53 PM 15.1 °F 5.2 °F -2.9 °F 45% 30.30 in 10.0 mi WNW 6.9 mph - N/A   Clear
10:53 PM 15.1 °F 6.4 °F -2.0 °F 47% 30.30 in 10.0 mi NW 5.8 mph - N/A   Mostly Cloudy
11:53 PM 14.0 °F 5.1 °F -0.0 °F 54% 30.30 in 10.0 mi NW 5.8 mph - N/A   Mostly Cloudy